Temp
12 13 12 14 14 14 15 15 15 15 15 15 15 15 15 15 15 15 15 14 14 14 14 14 13 13 13 13 13 12 12 12
13 12 14 13 14 15 15 15 15 15 15 15 15 15 15 14 14 14 14 13 13 13 13 13 13 13 13 13 12 12 12 11
13 13 13 14 14 15 15 15 15 14 14 14 14 14 13 13 13 12 12 12 12 12 12 12 12 12 12 12 12 11 11 11
13 13 14 14 15 16 15 15 14 13 13 13 13 13 13 12 12 12 12 12 12 12 12 12 12 12 12 12 11 11 11 10
12 13 13 15 16 16 15 14 13 12 12 12 12 13 13 12 12 12 12 12 12 12 12 12 11 11 11 11 11 11 10 9
13 13 14 14 15 15 14 14 13 12 12 12 12 12 12 11 12 12 12 12 12 11 11 11 11 10 10 10 10 9 9 9
13 13 13 14 14 14 13 12 12 12 12 12 12 12 12 12 12 12 12 11 11 11 11 11 11 11 10 10 9 9 8 8
13 13 13 14 14 13 13 12 12 12 12 12 13 12 12 12 12 12 11 11 11 11 11 11 11 11 10 9 9 9 8 8
13 13 13 13 13 13 13 13 12 12 12 13 13 13 13 12 12 11 11 11 11 11 11 10 10 9 8 8 8 7 7 7
13 13 13 13 13 13 12 12 12 12 12 12 12 12 12 12 11 11 11 11 11 11 9 8 8 8 7 7 6 6 5 5
14 14 13 13 13 13 13 13 12 12 12 12 12 12 12 11 11 11 11 10 9 8 8 7 7 6 6 5 5 5 5 4
14 14 13 13 13 13 12 12 12 12 11 11 11 11 11 11 11 10 9 8 7 7 7 7 6 5 5 5 4 4 4 4
15 14 13 13 13 13 12 12 12 11 10 10 10 11 11 10 10 9 8 7 7 7 6 6 6 5 5 4 3 3 3 3
14 14 14 13 13 13 12 12 11 10 10 10 10 10 10 9 9 9 8 7 7 7 6 6 6 4 4 3 3 3 2 2
14 14 13 13 12 12 11 10 10 10 10 10 10 9 9 9 9 8 8 8 7 7 6 5 4 4 3 3 2 2 2 1
14 13 12 12 11 11 12 12 12 11 11 10 9 9 9 10 9 9 8 7 7 6 5 4 4 3 3 2 2 2 1 0
13 12 12 11 11 11 11 12 11 11 10 9 9 9 8 8 8 7 6 6 5 5 4 4 3 3 2 2 1 1 1 0
12 12 12 11 11 11 11 11 11 10 9 9 8 7 8 7 7 6 6 6 5 4 4 4 3 2 2 1 1 1 0 -0
13 12 11 11 12 11 11 10 10 10 9 9 8 7 7 6 6 4 5 5 4 4 3 3 2 1 1 1 0 0 -0 -1
12 12 11 11 11 11 11 10 9 9 8 7 7 7 6 7 5 5 5 4 4 3 3 2 1 1 0 -0 -0 -1 -1 -2
Height
1539 1543 1550 1553 1557 1560 1560 1563 1564 1566 1565 1567 1568 1569 1570 1572 1574 1577 1576 1577 1579 1580 1578 1580 1581 1579 1578 1580 1579 1579 1581 1580
1537 1549 1552 1555 1558 1560 1560 1562 1565 1568 1567 1568 1569 1571 1572 1574 1575 1577 1577 1579 1581 1580 1580 1580 1581 1581 1579 1581 1579 1578 1580 1580
1541 1548 1552 1555 1557 1559 1560 1562 1565 1568 1568 1570 1571 1572 1573 1575 1576 1579 1579 1579 1581 1582 1582 1581 1582 1581 1579 1581 1581 1578 1580 1580
1546 1549 1551 1555 1556 1559 1560 1563 1567 1569 1569 1571 1573 1573 1573 1574 1575 1578 1579 1580 1581 1581 1583 1579 1580 1580 1579 1579 1580 1578 1578 1578
1546 1549 1554 1554 1557 1559 1562 1565 1566 1569 1569 1571 1573 1574 1573 1575 1574 1577 1579 1580 1581 1581 1580 1579 1578 1579 1578 1578 1576 1575 1575 1574
1549 1553 1554 1556 1557 1559 1562 1565 1566 1568 1569 1571 1572 1572 1574 1576 1575 1578 1579 1579 1579 1580 1579 1577 1578 1579 1577 1576 1573 1573 1573 1572
1550 1553 1555 1556 1558 1560 1562 1565 1565 1568 1570 1571 1572 1571 1573 1576 1577 1577 1577 1578 1578 1579 1579 1577 1579 1577 1575 1574 1571 1570 1570 1569
1551 1553 1556 1556 1558 1561 1563 1565 1566 1569 1570 1571 1572 1573 1574 1575 1577 1576 1576 1577 1577 1578 1576 1575 1575 1574 1573 1571 1568 1567 1566 1564
1552 1553 1555 1557 1559 1562 1563 1564 1567 1568 1569 1569 1571 1573 1574 1574 1575 1575 1574 1576 1576 1575 1575 1574 1572 1571 1570 1568 1566 1565 1564 1561
1550 1553 1555 1556 1559 1562 1564 1566 1566 1566 1567 1569 1571 1572 1573 1573 1573 1573 1574 1574 1574 1573 1573 1570 1568 1567 1566 1565 1563 1562 1561 1558
1548 1551 1554 1556 1559 1562 1564 1564 1565 1566 1567 1568 1569 1571 1571 1572 1571 1572 1572 1571 1570 1570 1570 1567 1564 1564 1563 1561 1560 1559 1557 1556
1547 1551 1553 1556 1558 1560 1562 1562 1563 1565 1565 1567 1568 1569 1569 1569 1570 1570 1569 1568 1568 1567 1565 1563 1561 1560 1559 1557 1556 1555 1555 1554
1545 1547 1550 1553 1555 1557 1559 1560 1562 1563 1564 1565 1566 1567 1567 1568 1568 1567 1567 1566 1565 1564 1563 1561 1559 1556 1554 1554 1553 1552 1550 1550
1543 1545 1548 1550 1553 1556 1558 1559 1560 1561 1561 1563 1564 1566 1566 1567 1567 1567 1565 1564 1563 1561 1560 1558 1556 1554 1553 1552 1550 1548 1547 1546
1540 1543 1546 1549 1552 1554 1555 1556 1557 1558 1560 1562 1562 1564 1564 1565 1564 1562 1562 1561 1560 1558 1556 1554 1553 1553 1551 1552 1548 1545 1541 1541
1539 1543 1546 1548 1549 1551 1552 1553 1554 1556 1558 1560 1561 1562 1562 1561 1560 1560 1559 1558 1556 1554 1553 1552 1550 1549 1548 1547 1546 1544 1540 1533
1538 1542 1543 1545 1547 1549 1550 1553 1554 1555 1556 1558 1558 1559 1559 1559 1558 1558 1556 1554 1552 1551 1550 1549 1547 1545 1543 1542 1540 1538 1537 1534
1535 1538 1541 1543 1544 1546 1549 1550 1551 1552 1554 1555 1556 1555 1556 1558 1556 1557 1554 1552 1550 1549 1548 1545 1543 1541 1539 1537 1535 1534 1532 1531
1532 1536 1539 1540 1542 1544 1547 1548 1549 1551 1552 1552 1551 1552 1553 1553 1553 1554 1552 1549 1547 1545 1543 1540 1538 1536 1534 1533 1531 1529 1527 1526
1530 1534 1536 1539 1541 1543 1544 1546 1547 1549 1550 1552 1553 1551 1551 1548 1547 1549 1548 1546 1543 1539 1537 1535 1533 1531 1529 1528 1526 1524 1522 1520
Wind_Speed
32 25 22 19 15 14 12 11 12 13 14 15 16 17 16 15 13 12 12 11 11 11 10 9 10 12 9 7 7 8 9 9
31 25 17 19 18 13 12 13 13 13 15 17 18 18 16 14 14 12 11 10 11 10 7 6 5 5 4 4 3 5 8 9
28 28 20 18 16 14 13 13 14 16 18 18 18 17 14 14 14 13 12 12 13 10 8 6 4 5 2 3 6 9 11 12
24 23 21 18 14 11 13 16 17 18 16 15 16 13 12 11 11 9 9 10 9 6 4 3 1 4 5 8 9 9 11 13
24 22 20 18 15 14 16 19 21 18 15 13 11 10 9 5 5 7 5 8 6 4 4 3 3 4 6 10 11 14 13 10
23 20 18 16 17 17 20 21 21 17 14 13 9 7 5 4 5 4 5 4 2 4 4 3 5 6 8 9 10 13 11 10
22 20 16 18 20 20 22 22 20 17 12 11 8 7 5 4 5 6 5 5 6 7 7 9 11 12 13 13 12 13 14 14
24 20 19 21 21 21 20 18 17 15 12 10 7 7 6 7 7 7 6 6 6 7 9 11 12 12 12 12 13 14 16 17
26 25 24 22 18 17 16 15 16 14 11 8 6 6 4 6 8 6 5 4 6 9 10 10 11 11 10 11 12 12 15 17
29 27 25 20 19 19 21 18 16 13 11 9 5 2 6 7 6 4 3 5 7 9 11 13 12 14 15 16 16 15 14 15
31 30 27 23 22 21 19 17 16 13 9 5 4 7 10 7 6 4 3 7 10 12 14 14 17 18 19 18 19 16 10 9
29 29 25 25 21 21 21 18 16 11 9 6 8 10 8 6 3 4 8 11 12 13 14 17 19 21 21 22 22 6 12 13
28 30 28 27 24 21 22 17 18 12 9 10 9 6 6 4 5 8 10 12 12 13 15 18 20 23 26 27 17 13 13 2
29 26 25 25 23 19 18 17 16 10 10 10 10 9 5 4 6 10 13 13 14 14 17 19 22 23 25 24 13 21 3 33
30 26 25 22 21 20 16 16 15 15 14 11 10 8 7 8 13 15 18 20 18 17 19 21 21 21 21 20 13 9 33 28
32 31 25 20 22 21 16 17 16 14 11 10 10 10 10 14 15 18 20 23 20 20 19 19 20 22 23 22 22 24 25 24
31 22 19 22 23 20 14 14 13 13 16 15 13 12 10 12 14 16 17 18 18 18 19 21 24 26 24 23 23 24 24 28
20 19 23 22 21 18 20 18 17 18 20 18 14 12 10 14 15 15 17 18 18 20 23 27 26 26 24 23 25 25 26 24
22 24 22 24 24 24 23 21 20 20 22 20 18 16 14 11 13 20 18 19 21 23 25 26 24 24 24 23 22 24 23 25
26 25 23 25 25 25 23 23 21 20 19 15 11 10 13 22 23 21 23 24 25 25 26 26 26 25 23 19 21 23 22 21
Wind_Direction
158 143 136 145 151 150 141 136 132 132 125 123 119 117 111 105 102 96 90 90 88 86 86 82 91 87 84 78 48 44 30 17
135 138 160 152 154 150 141 135 136 132 129 128 122 116 109 104 95 93 88 84 80 80 82 88 93 84 62 76 23 17 1 357
135 145 164 163 153 148 142 140 145 145 140 132 117 116 105 101 97 93 86 97 86 76 81 82 62 49 44 351 333 343 338 325
141 147 164 160 152 162 154 152 146 143 138 130 130 128 123 117 116 108 101 107 113 108 127 125 251 291 285 299 304 315 320 321
149 165 169 166 181 171 158 152 144 142 147 147 149 151 139 128 142 140 141 143 146 166 187 197 265 284 297 301 302 304 309 302
163 175 163 166 169 163 156 157 159 158 158 163 162 152 144 155 130 127 149 162 207 205 212 207 247 275 290 290 295 299 298 297
173 165 151 158 161 161 163 166 170 174 169 176 176 194 219 247 235 241 231 222 237 252 268 277 281 293 298 299 295 290 292 293
177 167 160 164 171 172 170 175 173 183 189 192 198 203 212 223 230 231 237 239 257 279 297 302 302 302 304 299 294 292 293 296
182 174 180 182 179 182 180 186 195 195 201 204 192 164 174 213 220 224 239 271 306 308 297 301 309 312 313 312 315 312 307 306
181 186 184 188 187 190 195 196 201 208 210 185 175 163 182 191 192 202 259 292 299 307 318 324 326 332 336 335 331 329 324 322
182 184 187 187 195 200 199 208 210 202 197 227 242 178 176 182 190 221 292 334 339 327 322 332 339 342 342 341 339 335 322 313
186 188 191 194 200 206 209 208 208 217 251 226 192 182 187 205 252 320 344 341 327 324 336 337 337 340 341 340 345 30 333 310
191 193 196 199 202 201 202 220 214 236 219 191 185 204 222 244 319 341 336 331 328 334 334 334 337 337 341 337 347 325 341 5
193 199 201 206 210 212 220 218 226 227 215 204 210 211 224 288 323 321 329 329 326 323 325 330 334 337 335 334 332 328 221 328
203 205 208 208 206 209 207 197 203 190 195 199 211 243 259 299 320 329 323 319 317 316 325 331 330 328 324 327 329 308 317 320
205 204 206 200 200 198 200 203 198 200 199 206 228 241 262 299 308 304 309 312 312 317 320 318 315 315 312 315 310 309 315 312
203 207 216 192 189 196 201 206 205 204 201 213 227 243 260 274 285 296 298 303 304 303 304 305 307 307 308 313 311 308 308 308
206 193 178 188 196 200 207 206 206 203 208 213 217 225 248 265 279 283 288 290 288 290 297 303 304 301 300 301 302 303 307 304
176 178 186 195 196 197 203 211 216 211 206 211 216 237 233 239 275 284 283 289 296 300 301 300 301 300 300 299 294 296 299 302
180 189 199 192 195 196 202 200 194 192 199 209 224 239 283 295 307 284 294 297 298 300 301 303 304 305 306 303 295 297 297 298